| time (UTC) | temp F | wind direction | speed knots | gust knots | rain 1hr in | rain 24hr in | rain mn in | humidity % | barometer mb |
| 20260508030129 | 55 | 28 | 0.0 | 0.0 | 0.00 | 0.00 | 0.00 | 39 | 1004.2 |
| 20260508025859 | 55 | 28 | 0.0 | 0.0 | 0.00 | 0.00 | 0.00 | 40 | 1004.2 |
| 20260508025057 | 56 | 28 | 0.0 | 0.0 | 0.00 | 0.00 | 0.00 | 39 | 1004.0 |
| 20260508024525 | 56 | 28 | 0.0 | 0.0 | 0.00 | 0.00 | 0.00 | 40 | 1004.0 |
| 20260508024014 | 56 | 28 | 0.0 | 0.0 | 0.00 | 0.00 | 0.00 | 39 | 1004.1 |
| 20260508023503 | 57 | 28 | 0.0 | 0.0 | 0.00 | 0.00 | 0.00 | 39 | 1003.9 |
| 20260508023002 | 57 | 0 | 0.0 | 0.0 | 0.00 | 0.00 | 0.00 | 37 | 1004.0 |
| 20260508022501 | 58 | 28 | 0.0 | 0.0 | 0.00 | 0.00 | 0.00 | 36 | 1004.0 |
| 20260508021955 | 58 | 28 | 0.0 | 0.0 | 0.00 | 0.00 | 0.00 | 35 | 1003.9 |
| 20260508021441 | 59 | 28 | 0.0 | 0.0 | 0.00 | 0.00 | 0.00 | 34 | 1004.0 |
| 20260508021155 | 59 | 28 | 0.0 | 0.0 | 0.00 | 0.00 | 0.00 | 33 | 1004.0 |
| 20260508020704 | 59 | 28 | 0.0 | 0.9 | 0.00 | 0.00 | 0.00 | 33 | 1003.9 |
| 20260508020126 | 59 | 28 | 0.0 | 0.9 | 0.00 | 0.00 | 0.00 | 33 | 1003.9 |
| 20260508015407 | 60 | 28 | 0.0 | 0.0 | 0.00 | 0.00 | 0.00 | 33 | 1003.9 |
| 20260508014841 | 60 | 28 | 0.0 | 0.0 | 0.00 | 0.00 | 0.00 | 32 | 1003.8 |
| 20260508014327 | 61 | 28 | 0.0 | 0.0 | 0.00 | 0.00 | 0.00 | 32 | 1003.9 |
| 20260508013820 | 62 | 28 | 0.0 | 0.0 | 0.00 | 0.00 | 0.00 | 30 | 1003.6 |
| 20260508013304 | 63 | 28 | 0.0 | 0.9 | 0.00 | 0.00 | 0.00 | 30 | 1003.7 |
| 20260508012742 | 63 | 28 | 0.0 | 0.9 | 0.00 | 0.00 | 0.00 | 29 | 1003.7 |
| 20260508012450 | 64 | 32 | 0.0 | 1.7 | 0.00 | 0.00 | 0.00 | 29 | 1003.4 |
| 20260508011723 | 64 | 32 | 0.0 | 1.7 | 0.00 | 0.00 | 0.00 | 28 | 1003.4 |
| 20260508011154 | 65 | 5 | 0.9 | 2.6 | 0.00 | 0.00 | 0.00 | 27 | 1003.5 |
| 20260508010652 | 65 | 11 | 0.9 | 3.5 | 0.00 | 0.00 | 0.00 | 27 | 1003.6 |
| 20260508010412 | 66 | 29 | 0.9 | 3.5 | 0.00 | 0.00 | 0.00 | 28 | 1003.7 |
| 20260508010248 | 65 | 37 | 0.9 | 3.5 | 0.00 | 0.00 | 0.00 | 28 | 1003.6 |
| 20260508005149 | 66 | 59 | 1.7 | 4.3 | 0.00 | 0.00 | 0.00 | 27 | 1003.3 |
| 20260508004650 | 67 | 340 | 1.7 | 4.3 | 0.00 | 0.00 | 0.00 | 26 | 1003.4 |
| 20260508004149 | 68 | 25 | 0.9 | 7.8 | 0.00 | 0.00 | 0.00 | 25 | 1003.4 |
| 20260508003642 | 68 | 349 | 0.9 | 7.8 | 0.00 | 0.00 | 0.00 | 24 | 1003.3 |
| 20260508003138 | 69 | 13 | 1.7 | 5.2 | 0.00 | 0.00 | 0.00 | 23 | 1003.3 |
| 20260508002633 | 69 | 278 | 1.7 | 5.2 | 0.00 | 0.00 | 0.00 | 23 | 1003.3 |
| 20260508002133 | 69 | 52 | 0.9 | 6.1 | 0.00 | 0.00 | 0.00 | 22 | 1003.2 |
| 20260508001633 | 69 | 355 | 0.9 | 6.1 | 0.00 | 0.00 | 0.00 | 22 | 1003.2 |
| 20260508001131 | 69 | 321 | 1.7 | 5.2 | 0.00 | 0.00 | 0.00 | 23 | 1003.2 |
| 20260508000633 | 69 | 252 | 2.6 | 5.2 | 0.00 | 0.00 | 0.00 | 23 | 1003.3 |
| 20260508000132 | 69 | 274 | 1.7 | 5.2 | 0.00 | 0.00 | 0.00 | 22 | 1003.3 |
| 20260507235633 | 70 | 286 | 1.7 | 4.3 | 0.00 | 0.00 | 0.00 | 22 | 1003.4 |
| 20260507235133 | 70 | 232 | 1.7 | 4.3 | 0.00 | 0.00 | 0.00 | 24 | 1003.3 |
| 20260507234844 | 70 | 258 | 0.9 | 4.3 | 0.00 | 0.00 | 0.00 | 23 | 1003.3 |
| 20260507234115 | 70 | 315 | 0.9 | 3.5 | 0.00 | 0.00 | 0.00 | 23 | 1003.3 |
| 20260507233605 | 71 | 305 | 1.7 | 4.3 | 0.00 | 0.00 | 0.00 | 22 | 1003.1 |
| 20260507233317 | 71 | 59 | 1.7 | 5.2 | 0.00 | 0.00 | 0.00 | 23 | 1003.2 |
| 20260507232548 | 71 | 333 | 1.7 | 5.2 | 0.00 | 0.00 | 0.00 | 23 | 1003.2 |
| 20260507232042 | 71 | 288 | 2.6 | 7.8 | 0.00 | 0.00 | 0.00 | 23 | 1003.1 |
| 20260507231536 | 71 | 309 | 2.6 | 7.8 | 0.00 | 0.00 | 0.00 | 23 | 1003.1 |
| 20260507231031 | 71 | 10 | 1.7 | 4.3 | 0.00 | 0.00 | 0.00 | 24 | 1003.1 |
| 20260507230525 | 72 | 34 | 1.7 | 6.1 | 0.00 | 0.00 | 0.00 | 23 | 1003.1 |
| 20260507230019 | 72 | 34 | 1.7 | 6.1 | 0.00 | 0.00 | 0.00 | 23 | 1003.2 |
| 20260507225506 | 72 | 286 | 1.7 | 5.2 | 0.00 | 0.00 | 0.00 | 23 | 1003.2 |
| 20260507225452 | 72 | 275 | 2.6 | 6.1 | 0.00 | 0.00 | 0.00 | 22 | 1003.0 |
| 20260507224501 | 72 | 349 | 2.6 | 6.1 | 0.00 | 0.00 | 0.00 | 22 | 1003.0 |
| 20260507223951 | 72 | 298 | 1.7 | 6.1 | 0.00 | 0.00 | 0.00 | 21 | 1003.1 |
| 20260507223937 | 72 | 26 | 1.7 | 6.1 | 0.00 | 0.00 | 0.00 | 23 | 1003.1 |
| 20260507222937 | 72 | 355 | 0.9 | 5.2 | 0.00 | 0.00 | 0.00 | 23 | 1003.1 |
| 20260507222431 | 72 | 198 | 1.7 | 6.1 | 0.00 | 0.00 | 0.00 | 24 | 1003.1 |
| 20260507222141 | 72 | 288 | 2.6 | 7.8 | 0.00 | 0.00 | 0.00 | 23 | 1003.1 |
| 20260507221415 | 72 | 206 | 2.6 | 7.8 | 0.00 | 0.00 | 0.00 | 23 | 1003.2 |
| 20260507220906 | 73 | 276 | 1.7 | 7.8 | 0.00 | 0.00 | 0.00 | 21 | 1003.2 |
| 20260507220400 | 72 | 341 | 1.7 | 6.1 | 0.00 | 0.00 | 0.00 | 22 | 1003.2 |
| 20260507215848 | 72 | 242 | 2.6 | 6.1 | 0.00 | 0.00 | 0.00 | 23 | 1003.2 |
| 20260507215345 | 71 | 259 | 2.6 | 7.0 | 0.00 | 0.00 | 0.00 | 24 | 1003.3 |
| 20260507214839 | 71 | 238 | 1.7 | 7.0 | 0.00 | 0.00 | 0.00 | 22 | 1003.2 |
| 20260507214329 | 70 | 338 | 1.7 | 6.1 | 0.00 | 0.00 | 0.00 | 23 | 1003.2 |
| 20260507213829 | 71 | 259 | 2.6 | 8.7 | 0.00 | 0.00 | 0.00 | 22 | 1003.2 |
| 20260507213323 | 72 | 329 | 3.5 | 12.2 | 0.00 | 0.00 | 0.00 | 22 | 1003.2 |
| 20260507212817 | 72 | 17 | 3.5 | 12.2 | 0.00 | 0.00 | 0.00 | 24 | 1003.2 |
| 20260507212309 | 72 | 26 | 2.6 | 8.7 | 0.00 | 0.00 | 0.00 | 22 | 1003.6 |
| 20260507212028 | 71 | 298 | 1.7 | 5.2 | 0.00 | 0.00 | 0.00 | 24 | 1003.6 |
| 20260507211259 | 70 | 286 | 2.6 | 6.1 | 0.00 | 0.00 | 0.00 | 24 | 1003.5 |
| 20260507210749 | 70 | 236 | 1.7 | 6.1 | 0.00 | 0.00 | 0.00 | 24 | 1003.5 |
| 20260507210245 | 70 | 258 | 1.7 | 5.2 | 0.00 | 0.00 | 0.00 | 25 | 1003.5 |
| 20260507205738 | 70 | 19 | 1.7 | 9.6 | 0.00 | 0.00 | 0.00 | 25 | 1003.5 |
| 20260507205232 | 69 | 250 | 1.7 | 9.6 | 0.00 | 0.00 | 0.00 | 26 | 1003.7 |
| 20260507204726 | 70 | 267 | 1.7 | 6.1 | 0.00 | 0.00 | 0.00 | 25 | 1003.7 |
| 20260507204216 | 70 | 313 | 2.6 | 8.7 | 0.00 | 0.00 | 0.00 | 25 | 1003.8 |
| 20260507203714 | 70 | 269 | 3.5 | 12.2 | 0.00 | 0.00 | 0.00 | 24 | 1003.9 |
| 20260507203208 | 71 | 219 | 4.3 | 12.2 | 0.00 | 0.00 | 0.00 | 23 | 1003.9 |
| 20260507202702 | 71 | 273 | 2.6 | 8.7 | 0.00 | 0.00 | 0.00 | 24 | 1003.9 |
| 20260507202156 | 70 | 304 | 2.6 | 8.7 | 0.00 | 0.00 | 0.00 | 26 | 1004.0 |
| 20260507201645 | 70 | 322 | 2.6 | 8.7 | 0.00 | 0.00 | 0.00 | 24 | 1004.0 |
| 20260507201144 | 70 | 182 | 2.6 | 8.7 | 0.00 | 0.00 | 0.00 | 25 | 1004.0 |
| 20260507200634 | 69 | 280 | 2.6 | 9.6 | 0.00 | 0.00 | 0.00 | 27 | 1004.3 |
| 20260507200132 | 68 | 318 | 3.5 | 9.6 | 0.00 | 0.00 | 0.00 | 24 | 1004.2 |
| 20260507195627 | 68 | 230 | 4.3 | 9.6 | 0.00 | 0.00 | 0.00 | 25 | 1004.2 |
| 20260507195120 | 69 | 203 | 3.5 | 10.4 | 0.00 | 0.00 | 0.00 | 25 | 1004.3 |
| 20260507194614 | 70 | 192 | 3.5 | 10.4 | 0.00 | 0.00 | 0.00 | 26 | 1004.4 |
| 20260507194103 | 69 | 287 | 3.5 | 10.4 | 0.00 | 0.00 | 0.00 | 24 | 1004.3 |
| 20260507193602 | 68 | 269 | 3.5 | 10.4 | 0.00 | 0.00 | 0.00 | 24 | 1004.5 |
| 20260507193057 | 69 | 224 | 3.5 | 8.7 | 0.00 | 0.00 | 0.00 | 25 | 1004.5 |
| 20260507193039 | 68 | 201 | 2.6 | 8.7 | 0.00 | 0.00 | 0.00 | 25 | 1004.5 |
| 20260507192310 | 68 | 273 | 3.5 | 10.4 | 0.00 | 0.00 | 0.00 | 27 | 1004.5 |
| 20260507191536 | 68 | 171 | 4.3 | 13.0 | 0.00 | 0.00 | 0.00 | 26 | 1004.5 |
| 20260507191252 | 67 | 208 | 4.3 | 13.0 | 0.00 | 0.00 | 0.00 | 25 | 1004.4 |
| 20260507190522 | 67 | 268 | 3.5 | 8.7 | 0.00 | 0.00 | 0.00 | 26 | 1004.8 |
| 20260507190023 | 67 | 257 | 3.5 | 11.3 | 0.00 | 0.00 | 0.00 | 28 | 1004.8 |
| 20260507185506 | 67 | 284 | 4.3 | 11.3 | 0.00 | 0.00 | 0.00 | 26 | 1004.8 |
| 20260507185230 | 67 | 227 | 4.3 | 11.3 | 0.00 | 0.00 | 0.00 | 25 | 1004.8 |
| 20260507184500 | 67 | 234 | 3.5 | 10.4 | 0.00 | 0.00 | 0.00 | 26 | 1004.8 |
| 20260507184214 | 67 | 192 | 3.5 | 10.4 | 0.00 | 0.00 | 0.00 | 26 | 1004.8 |
| 20260507183442 | 67 | 182 | 3.5 | 9.6 | 0.00 | 0.00 | 0.00 | 27 | 1005.0 |
| 20260507182940 | 67 | 216 | 4.3 | 12.2 | 0.00 | 0.00 | 0.00 | 26 | 1005.0 |
| 20260507182436 | 67 | 212 | 4.3 | 12.2 | 0.00 | 0.00 | 0.00 | 28 | 1005.0 |
| 20260507181930 | 66 | 267 | 3.5 | 9.6 | 0.00 | 0.00 | 0.00 | 27 | 1005.0 |
| 20260507181424 | 66 | 264 | 3.5 | 10.4 | 0.00 | 0.00 | 0.00 | 27 | 1005.0 |
| 20260507180921 | 66 | 300 | 4.3 | 13.0 | 0.00 | 0.00 | 0.00 | 27 | 1005.0 |
| 20260507180413 | 66 | 225 | 5.2 | 13.0 | 0.00 | 0.00 | 0.00 | 27 | 1005.5 |
| 20260507175907 | 66 | 252 | 3.5 | 9.6 | 0.00 | 0.00 | 0.00 | 28 | 1005.5 |
| 20260507175401 | 65 | 266 | 4.3 | 11.3 | 0.00 | 0.00 | 0.00 | 31 | 1005.6 |
| 20260507174855 | 65 | 148 | 4.3 | 11.3 | 0.00 | 0.00 | 0.00 | 31 | 1005.6 |
| 20260507174345 | 65 | 242 | 3.5 | 12.2 | 0.00 | 0.00 | 0.00 | 31 | 1005.6 |
| 20260507173843 | 65 | 271 | 4.3 | 12.2 | 0.00 | 0.00 | 0.00 | 30 | 1005.8 |
| 20260507173333 | 65 | 273 | 4.3 | 11.3 | 0.00 | 0.00 | 0.00 | 30 | 1005.8 |
| 20260507172831 | 64 | 242 | 4.3 | 11.3 | 0.00 | 0.00 | 0.00 | 34 | 1005.7 |
| 20260507172322 | 64 | 254 | 3.5 | 11.3 | 0.00 | 0.00 | 0.00 | 34 | 1006.1 |
| 20260507171818 | 64 | 300 | 3.5 | 11.3 | 0.00 | 0.00 | 0.00 | 34 | 1006.1 |
| 20260507171312 | 63 | 195 | 3.5 | 13.9 | 0.00 | 0.00 | 0.00 | 34 | 1006.1 |
| 20260507170800 | 63 | 296 | 3.5 | 13.9 | 0.00 | 0.00 | 0.00 | 36 | 1006.3 |
| 20260507170520 | 63 | 289 | 3.5 | 11.3 | 0.00 | 0.00 | 0.00 | 38 | 1006.3 |
| 20260507165756 | 63 | 243 | 3.5 | 11.3 | 0.00 | 0.00 | 0.00 | 39 | 1006.3 |
| 20260507165249 | 62 | 281 | 4.3 | 9.6 | 0.00 | 0.00 | 0.00 | 39 | 1006.4 |
| 20260507164744 | 62 | 290 | 3.5 | 8.7 | 0.00 | 0.00 | 0.00 | 39 | 1006.3 |
| 20260507164232 | 62 | 268 | 2.6 | 8.7 | 0.00 | 0.00 | 0.00 | 38 | 1006.3 |
| 20260507163731 | 62 | 290 | 2.6 | 6.1 | 0.00 | 0.00 | 0.00 | 40 | 1006.5 |
| 20260507163227 | 62 | 238 | 2.6 | 6.1 | 0.00 | 0.00 | 0.00 | 39 | 1006.5 |
| 20260507162950 | 62 | 273 | 2.6 | 6.1 | 0.00 | 0.00 | 0.00 | 40 | 1006.5 |
| 20260507162225 | 61 | 197 | 2.6 | 5.2 | 0.00 | 0.00 | 0.00 | 43 | 1006.8 |
| 20260507161725 | 60 | 254 | 3.5 | 7.8 | 0.00 | 0.00 | 0.00 | 43 | 1006.8 |
| 20260507161226 | 60 | 257 | 3.5 | 9.6 | 0.00 | 0.00 | 0.00 | 47 | 1006.8 |
| 20260507160723 | 60 | 232 | 3.5 | 9.6 | 0.00 | 0.00 | 0.00 | 44 | 1006.6 |
| 20260507160222 | 60 | 271 | 4.3 | 8.7 | 0.00 | 0.00 | 0.00 | 43 | 1006.6 |
| 20260507155941 | 60 | 248 | 3.5 | 10.4 | 0.00 | 0.00 | 0.00 | 44 | 1006.6 |
| 20260507155220 | 60 | 263 | 3.5 | 10.4 | 0.00 | 0.00 | 0.00 | 46 | 1006.7 |
| 20260507154721 | 60 | 213 | 3.5 | 10.4 | 0.00 | 0.00 | 0.00 | 44 | 1006.6 |
| 20260507154218 | 60 | 234 | 3.5 | 9.6 | 0.00 | 0.00 | 0.00 | 45 | 1006.7 |
| 20260507153950 | 60 | 14 | 3.5 | 9.6 | 0.00 | 0.00 | 0.00 | 45 | 1006.7 |
| 20260507153218 | 59 | 198 | 3.5 | 11.3 | 0.00 | 0.00 | 0.00 | 46 | 1006.7 |
| 20260507152725 | 59 | 240 | 3.5 | 11.3 | 0.00 | 0.00 | 0.00 | 46 | 1006.7 |
| 20260507152219 | 59 | 250 | 3.5 | 9.6 | 0.00 | 0.00 | 0.00 | 47 | 1006.8 |
| 20260507151714 | 59 | 209 | 3.5 | 9.6 | 0.00 | 0.00 | 0.00 | 47 | 1006.8 |
| 20260507151205 | 58 | 212 | 3.5 | 8.7 | 0.00 | 0.00 | 0.00 | 47 | 1006.7 |
| 20260507150707 | 58 | 232 | 2.6 | 8.7 | 0.00 | 0.00 | 0.00 | 48 | 1006.7 |
| 20260507150204 | 57 | 281 | 2.6 | 9.6 | 0.00 | 0.00 | 0.00 | 51 | 1006.6 |
| 20260507145704 | 56 | 277 | 2.6 | 9.6 | 0.00 | 0.00 | 0.00 | 51 | 1006.6 |
| 20260507145205 | 56 | 246 | 3.5 | 8.7 | 0.00 | 0.00 | 0.00 | 54 | 1006.6 |
| 20260507144702 | 56 | 264 | 3.5 | 8.7 | 0.00 | 0.00 | 0.00 | 53 | 1006.6 |
| 20260507144203 | 55 | 274 | 3.5 | 8.7 | 0.00 | 0.00 | 0.00 | 54 | 1006.6 |
| 20260507143703 | 55 | 285 | 2.6 | 8.7 | 0.00 | 0.00 | 0.00 | 58 | 1006.7 |
| 20260507143206 | 54 | 234 | 2.6 | 8.7 | 0.00 | 0.00 | 0.00 | 60 | 1006.7 |
| 20260507142921 | 53 | 288 | 3.5 | 8.7 | 0.00 | 0.00 | 0.00 | 61 | 1006.6 |
| 20260507142153 | 53 | 203 | 3.5 | 6.1 | 0.00 | 0.00 | 0.00 | 61 | 1006.6 |
| 20260507141650 | 52 | 216 | 3.5 | 8.7 | 0.00 | 0.00 | 0.00 | 63 | 1006.5 |
| 20260507141409 | 51 | 200 | 3.5 | 8.7 | 0.00 | 0.00 | 0.00 | 65 | 1006.5 |
| 20260507140647 | 51 | 207 | 3.5 | 8.7 | 0.00 | 0.00 | 0.00 | 65 | 1006.5 |
| 20260507140146 | 50 | 167 | 2.6 | 6.1 | 0.00 | 0.00 | 0.00 | 66 | 1006.5 |
| 20260507135648 | 49 | 214 | 3.5 | 10.4 | 0.00 | 0.00 | 0.00 | 68 | 1006.4 |
| 20260507135147 | 49 | 221 | 3.5 | 10.4 | 0.00 | 0.00 | 0.00 | 70 | 1006.4 |
| 20260507134648 | 48 | 186 | 3.5 | 11.3 | 0.00 | 0.00 | 0.00 | 71 | 1006.4 |
| 20260507134634 | 47 | 240 | 2.6 | 11.3 | 0.00 | 0.00 | 0.00 | 73 | 1006.3 |
| 20260507133644 | 47 | 0 | 2.6 | 9.6 | 0.00 | 0.00 | 0.00 | 73 | 1006.5 |
| 20260507133132 | 46 | 290 | 2.6 | 7.8 | 0.00 | 0.00 | 0.00 | 74 | 1006.4 |
| 20260507132623 | 46 | 184 | 2.6 | 7.8 | 0.00 | 0.00 | 0.00 | 74 | 1006.4 |
| 20260507132110 | 45 | 176 | 1.7 | 5.2 | 0.00 | 0.00 | 0.00 | 74 | 1006.5 |
| 20260507131602 | 45 | 207 | 2.6 | 6.1 | 0.00 | 0.00 | 0.00 | 74 | 1006.5 |
| 20260507131319 | 45 | 199 | 2.6 | 7.0 | 0.00 | 0.00 | 0.00 | 74 | 1006.5 |
| 20260507130808 | 45 | 200 | 2.6 | 7.0 | 0.00 | 0.00 | 0.00 | 74 | 1006.2 |
| 20260507130038 | 45 | 182 | 2.6 | 8.7 | 0.00 | 0.00 | 0.00 | 74 | 1006.2 |
| 20260507125523 | 45 | 188 | 2.6 | 8.7 | 0.00 | 0.00 | 0.00 | 74 | 1006.2 |
| 20260507125022 | 44 | 166 | 1.7 | 6.1 | 0.00 | 0.00 | 0.00 | 74 | 1006.2 |
| 20260507124731 | 44 | 207 | 1.7 | 6.1 | 0.00 | 0.00 | 0.00 | 75 | 1006.1 |
| 20260507124008 | 44 | 180 | 0.9 | 6.1 | 0.00 | 0.00 | 0.00 | 75 | 1006.1 |
| 20260507123501 | 44 | 194 | 0.9 | 4.3 | 0.00 | 0.00 | 0.00 | 75 | 1006.2 |
| 20260507122955 | 43 | 184 | 0.9 | 3.5 | 0.00 | 0.00 | 0.00 | 75 | 1006.2 |
| 20260507122456 | 43 | 149 | 0.0 | 2.6 | 0.00 | 0.00 | 0.00 | 75 | 1006.1 |
| 20260507121954 | 42 | 188 | 0.9 | 2.6 | 0.00 | 0.00 | 0.00 | 74 | 1006.1 |
| 20260507121933 | 42 | 139 | 0.0 | 2.6 | 0.00 | 0.00 | 0.00 | 74 | 1006.1 |
| 20260507120908 | 42 | 208 | 0.0 | 2.6 | 0.00 | 0.00 | 0.00 | 74 | 1006.0 |
| 20260507120413 | 42 | 148 | 0.0 | 1.7 | 0.00 | 0.00 | 0.00 | 73 | 1005.9 |
| 20260507115846 | 41 | 189 | 0.0 | 3.5 | 0.00 | 0.00 | 0.00 | 73 | 1005.9 |
| 20260507115337 | 41 | 188 | 0.0 | 3.5 | 0.00 | 0.00 | 0.00 | 73 | 1006.0 |
| 20260507114816 | 41 | 142 | 0.0 | 0.9 | 0.00 | 0.00 | 0.00 | 72 | 1005.9 |
| 20260507114306 | 40 | 191 | 0.0 | 0.9 | 0.00 | 0.00 | 0.00 | 71 | 1005.9 |
| 20260507113751 | 40 | 191 | 0.0 | 0.0 | 0.00 | 0.00 | 0.00 | 71 | 1005.9 |
| 20260507113213 | 40 | 191 | 0.0 | 0.9 | 0.00 | 0.00 | 0.00 | 71 | 1005.9 |
| 20260507112655 | 40 | 191 | 0.0 | 0.9 | 0.00 | 0.00 | 0.00 | 70 | 1005.9 |
| 20260507112149 | 40 | 192 | 0.0 | 0.9 | 0.00 | 0.00 | 0.00 | 69 | 1005.8 |
| 20260507111641 | 40 | 192 | 0.0 | 1.7 | 0.00 | 0.00 | 0.00 | 69 | 1005.8 |
| 20260507111404 | 40 | 192 | 0.0 | 1.7 | 0.00 | 0.00 | 0.00 | 68 | 1005.8 |
| 20260507110623 | 40 | 192 | 0.0 | 1.7 | 0.00 | 0.00 | 0.00 | 68 | 1005.8 |
| 20260507110104 | 40 | 192 | 0.0 | 1.7 | 0.00 | 0.00 | 0.00 | 67 | 1005.8 |
| 20260507105558 | 40 | 160 | 0.0 | 0.9 | 0.00 | 0.00 | 0.00 | 66 | 1005.8 |
| 20260507105045 | 40 | 160 | 0.0 | 0.9 | 0.00 | 0.00 | 0.00 | 66 | 1005.8 |
| 20260507104548 | 40 | 157 | 0.0 | 1.7 | 0.00 | 0.00 | 0.00 | 65 | 1005.8 |
| 20260507104013 | 40 | 150 | 0.0 | 0.9 | 0.00 | 0.00 | 0.00 | 65 | 1005.8 |
| 20260507103727 | 40 | 150 | 0.0 | 0.9 | 0.00 | 0.00 | 0.00 | 64 | 1005.8 |
| 20260507102958 | 40 | 147 | 0.0 | 0.9 | 0.00 | 0.00 | 0.00 | 63 | 1005.8 |
| 20260507102454 | 40 | 157 | 0.0 | 0.0 | 0.00 | 0.00 | 0.00 | 62 | 1005.8 |
| 20260507101929 | 41 | 157 | 0.0 | 0.9 | 0.00 | 0.00 | 0.00 | 61 | 1005.9 |
| 20260507101414 | 41 | 157 | 0.0 | 1.7 | 0.00 | 0.00 | 0.00 | 60 | 1006.0 |
| 20260507100912 | 41 | 186 | 0.0 | 1.7 | 0.00 | 0.00 | 0.00 | 60 | 1006.0 |
| 20260507100408 | 41 | 187 | 0.0 | 1.7 | 0.00 | 0.00 | 0.00 | 59 | 1006.3 |
| 20260507100125 | 41 | 190 | 0.0 | 1.7 | 0.00 | 0.00 | 0.00 | 58 | 1006.3 |
| 20260507095400 | 41 | 190 | 0.0 | 1.7 | 0.00 | 0.00 | 0.00 | 58 | 1006.3 |
| 20260507094859 | 42 | 190 | 0.0 | 1.7 | 0.00 | 0.00 | 0.00 | 57 | 1006.3 |
| 20260507094558 | 42 | 149 | 0.0 | 1.7 | 0.00 | 0.00 | 0.00 | 57 | 1006.3 |
| 20260507093819 | 42 | 190 | 0.0 | 0.9 | 0.00 | 0.00 | 0.00 | 56 | 1006.4 |
| 20260507093316 | 42 | 188 | 0.0 | 1.7 | 0.00 | 0.00 | 0.00 | 55 | 1006.4 |
| 20260507092750 | 42 | 188 | 0.0 | 1.7 | 0.00 | 0.00 | 0.00 | 54 | 1006.5 |
| 20260507092246 | 43 | 188 | 0.9 | 2.6 | 0.00 | 0.00 | 0.00 | 54 | 1006.5 |
| 20260507091743 | 43 | 188 | 0.9 | 4.3 | 0.00 | 0.00 | 0.00 | 53 | 1006.5 |
| 20260507091234 | 43 | 211 | 0.9 | 4.3 | 0.00 | 0.00 | 0.00 | 53 | 1006.5 |
| 20260507090719 | 44 | 210 | 0.9 | 4.3 | 0.00 | 0.00 | 0.00 | 52 | 1006.8 |
| 20260507090442 | 44 | 156 | 0.9 | 5.2 | 0.00 | 0.00 | 0.00 | 52 | 1006.8 |
| 20260507085713 | 44 | 205 | 0.9 | 5.2 | 0.00 | 0.00 | 0.00 | 53 | 1006.8 |
| 20260507085208 | 43 | 208 | 0.0 | 2.6 | 0.00 | 0.00 | 0.00 | 53 | 1006.8 |
| 20260507084710 | 43 | 194 | 0.9 | 3.5 | 0.00 | 0.00 | 0.00 | 53 | 1006.8 |
| 20260507084201 | 43 | 203 | 0.9 | 3.5 | 0.00 | 0.00 | 0.00 | 52 | 1006.8 |
| 20260507083659 | 43 | 168 | 0.9 | 3.5 | 0.00 | 0.00 | 0.00 | 51 | 1007.0 |
| 20260507083202 | 43 | 221 | 0.9 | 4.3 | 0.00 | 0.00 | 0.00 | 51 | 1007.0 |
| 20260507083141 | 42 | 161 | 0.9 | 4.3 | 0.00 | 0.00 | 0.00 | 51 | 1006.9 |
| 20260507082157 | 42 | 205 | 0.0 | 2.6 | 0.00 | 0.00 | 0.00 | 51 | 1007.0 |
| 20260507081648 | 42 | 162 | 0.9 | 3.5 | 0.00 | 0.00 | 0.00 | 51 | 1007.0 |
| 20260507081149 | 42 | 162 | 0.9 | 3.5 | 0.00 | 0.00 | 0.00 | 50 | 1007.0 |
| 20260507080649 | 42 | 137 | 0.9 | 3.5 | 0.00 | 0.00 | 0.00 | 50 | 1007.2 |
| 20260507080143 | 42 | 167 | 0.9 | 4.3 | 0.00 | 0.00 | 0.00 | 51 | 1007.2 |
| 20260507075620 | 42 | 215 | 0.9 | 4.3 | 0.00 | 0.00 | 0.00 | 52 | 1007.1 |
| 20260507075342 | 41 | 175 | 0.0 | 3.5 | 0.00 | 0.00 | 0.00 | 54 | 1007.2 |
| 20260507074611 | 41 | 200 | 0.0 | 0.9 | 0.00 | 0.00 | 0.00 | 54 | 1007.2 |
| 20260507074332 | 41 | 200 | 0.0 | 0.9 | 0.00 | 0.00 | 0.00 | 55 | 1007.2 |
| 20260507073828 | 41 | 200 | 0.0 | 0.9 | 0.00 | 0.00 | 0.00 | 54 | 1007.5 |
| 20260507073052 | 41 | 200 | 0.0 | 0.9 | 0.00 | 0.00 | 0.00 | 55 | 1007.5 |
| 20260507072809 | 41 | 200 | 0.0 | 0.0 | 0.00 | 0.00 | 0.00 | 54 | 1007.5 |
| 20260507072235 | 41 | 200 | 0.0 | 0.9 | 0.00 | 0.00 | 0.00 | 54 | 1007.7 |
| 20260507071509 | 40 | 200 | 0.0 | 0.9 | 0.00 | 0.00 | 0.00 | 54 | 1007.6 |
| 20260507071006 | 40 | 200 | 0.0 | 0.9 | 0.00 | 0.00 | 0.00 | 54 | 1007.6 |
| 20260507070500 | 40 | 200 | 0.0 | 0.9 | 0.00 | 0.00 | 0.00 | 54 | 1007.9 |
| 20260507065953 | 40 | 200 | 0.0 | 1.7 | 0.00 | 0.00 | 0.00 | 54 | 1007.9 |
| 20260507065448 | 40 | 201 | 0.0 | 1.7 | 0.00 | 0.00 | 0.00 | 54 | 1007.8 |
| 20260507064939 | 39 | 229 | 0.0 | 0.9 | 0.00 | 0.00 | 0.00 | 54 | 1008.1 |
| 20260507064417 | 40 | 239 | 0.0 | 0.0 | 0.00 | 0.00 | 0.00 | 54 | 1008.1 |
| 20260507063914 | 40 | 239 | 0.0 | 0.0 | 0.00 | 0.00 | 0.00 | 54 | 1008.1 |
| 20260507063359 | 40 | 239 | 0.0 | 0.0 | 0.00 | 0.00 | 0.00 | 54 | 1008.1 |
| 20260507063342 | 40 | 239 | 0.0 | 0.0 | 0.00 | 0.00 | 0.00 | 54 | 1008.3 |
| 20260507062334 | 40 | 239 | 0.0 | 0.0 | 0.00 | 0.00 | 0.00 | 53 | 1008.5 |
| 20260507061749 | 40 | 239 | 0.0 | 0.0 | 0.00 | 0.00 | 0.00 | 53 | 1008.5 |
| 20260507061250 | 40 | 239 | 0.0 | 0.0 | 0.00 | 0.00 | 0.00 | 53 | 1008.5 |
| 20260507060733 | 40 | 239 | 0.0 | 0.0 | 0.00 | 0.00 | 0.00 | 52 | 1008.6 |
| 20260507060220 | 40 | 239 | 0.0 | 0.0 | 0.00 | 0.00 | 0.00 | 52 | 1008.6 |
| 20260507055934 | 40 | 239 | 0.0 | 0.0 | 0.00 | 0.00 | 0.00 | 52 | 1008.6 |
| 20260507055159 | 40 | 239 | 0.0 | 0.0 | 0.00 | 0.00 | 0.00 | 51 | 1008.7 |
| 20260507054909 | 40 | 239 | 0.0 | 0.0 | 0.00 | 0.00 | 0.00 | 51 | 1008.7 |
| 20260507054150 | 41 | 239 | 0.0 | 0.0 | 0.00 | 0.00 | 0.00 | 50 | 1008.7 |
| 20260507053647 | 41 | 239 | 0.0 | 0.0 | 0.00 | 0.00 | 0.00 | 50 | 1008.7 |
| 20260507053139 | 41 | 239 | 0.0 | 0.0 | 0.00 | 0.00 | 0.00 | 49 | 1008.7 |
| 20260507052622 | 42 | 239 | 0.0 | 0.0 | 0.00 | 0.00 | 0.00 | 49 | 1008.7 |
| 20260507052117 | 42 | 239 | 0.0 | 0.0 | 0.00 | 0.00 | 0.00 | 48 | 1008.8 |
| 20260507051647 | 42 | 239 | 0.0 | 0.0 | 0.00 | 0.00 | 0.00 | 49 | 1008.8 |
| 20260507051537 | 42 | 239 | 0.0 | 0.0 | 0.00 | 0.00 | 0.00 | 48 | 1008.8 |
| 20260507050437 | 42 | 239 | 0.0 | 0.0 | 0.00 | 0.00 | 0.00 | 48 | 1008.9 |
| 20260507045928 | 42 | 239 | 0.0 | 0.0 | 0.00 | 0.00 | 0.00 | 48 | 1008.9 |
| 20260507045648 | 42 | 239 | 0.0 | 0.0 | 0.00 | 0.00 | 0.00 | 47 | 1008.9 |
| 20260507044904 | 42 | 239 | 0.0 | 0.0 | 0.00 | 0.00 | 0.00 | 46 | 1008.9 |
| 20260507044356 | 42 | 239 | 0.0 | 0.0 | 0.00 | 0.00 | 0.00 | 46 | 1008.9 |
| 20260507044101 | 42 | 239 | 0.0 | 0.0 | 0.00 | 0.00 | 0.00 | 47 | 1009.1 |
| 20260507043331 | 42 | 238 | 0.0 | 0.0 | 0.00 | 0.00 | 0.00 | 47 | 1009.1 |
| 20260507042828 | 42 | 0 | 0.0 | 0.0 | 0.00 | 0.00 | 0.00 | 47 | 1009.1 |
| 20260507042325 | 42 | 238 | 0.0 | 0.0 | 0.00 | 0.00 | 0.00 | 47 | 1009.3 |
| 20260507041823 | 43 | 238 | 0.0 | 0.0 | 0.00 | 0.00 | 0.00 | 46 | 1009.4 |
| 20260507041322 | 43 | 238 | 0.0 | 0.0 | 0.00 | 0.00 | 0.00 | 45 | 1009.4 |
| 20260507040814 | 43 | 0 | 0.0 | 0.0 | 0.00 | 0.00 | 0.00 | 45 | 1009.5 |
| 20260507040741 | 43 | 0 | 0.0 | 0.0 | 0.00 | 0.00 | 0.00 | 44 | 1009.5 |
| 20260507035754 | 44 | 0 | 0.0 | 0.9 | 0.00 | 0.00 | 0.00 | 44 | 1009.5 |
| 20260507035251 | 44 | 0 | 0.0 | 0.9 | 0.00 | 0.00 | 0.00 | 43 | 1009.6 |
| 20260507035018 | 44 | 0 | 0.0 | 0.0 | 0.00 | 0.00 | 0.00 | 43 | 1009.6 |
| 20260507034214 | 44 | 0 | 0.0 | 0.0 | 0.00 | 0.00 | 0.00 | 43 | 1009.6 |
| 20260507033700 | 44 | 0 | 0.0 | 0.0 | 0.00 | 0.00 | 0.00 | 43 | 1009.6 |
| 20260507033155 | 44 | 0 | 0.0 | 0.0 | 0.00 | 0.00 | 0.00 | 42 | 1009.6 |
| 20260507032906 | 45 | 0 | 0.0 | 0.0 | 0.00 | 0.00 | 0.00 | 43 | 1009.6 |
| 20260507032615 | 45 | 0 | 0.0 | 0.0 | 0.00 | 0.00 | 0.00 | 42 | 1009.6 |
| 20260507031850 | 45 | 0 | 0.0 | 0.0 | 0.00 | 0.00 | 0.00 | 40 | 1009.6 |
| 20260507031108 | 45 | 0 | 0.0 | 0.0 | 0.00 | 0.00 | 0.00 | 40 | 1009.7 |
| 20260507030558 | 45 | 0 | 0.0 | 0.0 | 0.00 | 0.00 | 0.00 | 40 | 1009.7 |